Location: Izdebno
(52.6670°N, 16.2170°E)
Time: 23:37:55
(UTC+02:00)

S-56A Canister/Altair - Pass Details

Date: 24 April 2024
Orbit: 638 x 2488 km, 38.9° (Epoch: 22 May)

Event Time Altitude Azimuth Distance (km) Brightness Sun altitude
Rises 16:44:29 0° 214° (SW) 3,008 11.3 29.7°
Reaches altitude 10° 16:47:35 10° 190° (S) 2,231 10.4 29.3°
Maximum altitude 16:50:28 15° 155° (SSE) 2,066 9.8 28.8°
Drops below altitude 10° 16:53:47 10° 122° (ESE) 2,647 10.0 28.4°
Sets 16:58:02 0° 101° (ESE) 3,954 10.7 27.7°
